When you browse on this site, cookies collect data to enhance your experience and personalize the content and advertising you see.
Visit our Privacy Policy to learn more. By continuing to use the site, you agree to this use of cookies and data.
  • en France
  • Liste des pays
  • À 7 jours
  • Température de l'eau
  • Carte météo
  • Widgets météo
  • user-avatar
    Se connecter

    Météo par heure à Jaunde

    Ce jour, 4 Avril, Samedi

    Heure Température Précipitation Vent Pression Humidité
    00:00 +23°C° 4.2 mm 1 m/s 697 mmHg 97%
    01:00 +22°C° 0 mm 1 m/s 697 mmHg 96%
    02:00 +22°C° 1.9 mm 1 m/s 696 mmHg 97%
    03:00 +22°C° 1.9 mm 1 m/s 696 mmHg 97%
    04:00 +22°C° 1.9 mm 1 m/s 695 mmHg 97%
    05:00 +22°C° 0 mm 1 m/s 696 mmHg 96%
    06:00 +22°C° 0 mm 1 m/s 697 mmHg 96%
    07:00 +20°C° 0 mm 0 m/s 698 mmHg 96%
    08:00 +22°C° 0 mm 0 m/s 698 mmHg 89%
    09:00 +25°C° 0 mm 1 m/s 698 mmHg 82%
    10:00 +27°C° 0 mm 1 m/s 699 mmHg 76%
    11:00 +27°C° 0 mm 1 m/s 698 mmHg 72%
    12:00 +28°C° 0 mm 1 m/s 698 mmHg 69%
    13:00 +29°C° 0 mm 1 m/s 697 mmHg 65%
    14:00 +28°C° 0 mm 1 m/s 697 mmHg 68%
    15:00 +28°C° 0 mm 1 m/s 696 mmHg 71%
    16:00 +28°C° 0 mm 1 m/s 695 mmHg 75%
    17:00 +26°C° 0.3 mm 1 m/s 696 mmHg 81%
    18:00 +25°C° 0.3 mm 1 m/s 696 mmHg 87%
    19:00 +24°C° 0.3 mm 1 m/s 697 mmHg 93%
    20:00 +24°C° 0 mm 1 m/s 697 mmHg 93%
    21:00 +24°C° 0 mm 1 m/s 698 mmHg 94%
    22:00 +23°C° 0 mm 1 m/s 698 mmHg 95%
    23:00 +23°C° 0 mm 1 m/s 698 mmHg 96%

    Demain, 5 Avril, Dimanche

    Heure Température Précipitation Vent Pression Humidité
    00:00 +23°C° 0 mm 1 m/s 698 mmHg 96%
    01:00 +22°C° 0 mm 1 m/s 698 mmHg 97%
    02:00 +22°C° 0 mm 1 m/s 697 mmHg 96%
    03:00 +23°C° 0 mm 1 m/s 697 mmHg 95%
    04:00 +23°C° 0 mm 1 m/s 696 mmHg 95%
    05:00 +23°C° 0 mm 1 m/s 697 mmHg 94%
    06:00 +21°C° 0 mm 0 m/s 697 mmHg 93%
    07:00 +21°C° 0 mm 0 m/s 698 mmHg 92%
    08:00 +24°C° 0 mm 0 m/s 698 mmHg 80%
    09:00 +27°C° 0 mm 0 m/s 699 mmHg 69%
    10:00 +30°C° 0 mm 0 m/s 700 mmHg 57%
    11:00 +32°C° 0 mm 0 m/s 699 mmHg 51%
    12:00 +33°C° 0 mm 0 m/s 699 mmHg 44%
    13:00 +35°C° 0 mm 0 m/s 698 mmHg 38%
    14:00 +36°C° 0 mm 1 m/s 697 mmHg 42%
    15:00 +34°C° 0 mm 1 m/s 696 mmHg 47%
    16:00 +33°C° 0 mm 1 m/s 695 mmHg 51%
    17:00 +31°C° 0 mm 1 m/s 695 mmHg 59%
    18:00 +29°C° 0 mm 1 m/s 695 mmHg 66%
    19:00 +28°C° 0 mm 1 m/s 695 mmHg 74%
    20:00 +26°C° 1.6 mm 1 m/s 696 mmHg 81%
    21:00 +25°C° 1.6 mm 2 m/s 696 mmHg 88%
    22:00 +24°C° 1.6 mm 2 m/s 697 mmHg 95%
    23:00 +24°C° 1.2 mm 2 m/s 697 mmHg 95%

    Après-demain, 6 Avril, Lundi

    Heure Température Précipitation Vent Pression Humidité
    00:00 +24°C° 1.2 mm 1 m/s 697 mmHg 96%
    01:00 +23°C° 1.2 mm 1 m/s 697 mmHg 96%
    02:00 +23°C° 0 mm 1 m/s 697 mmHg 96%
    03:00 +21°C° 0 mm 0 m/s 697 mmHg 96%
    04:00 +21°C° 0 mm 0 m/s 696 mmHg 96%
    05:00 +21°C° 0 mm 0 m/s 697 mmHg 95%
    06:00 +21°C° 0 mm 0 m/s 697 mmHg 95%
    07:00 +23°C° 0 mm 1 m/s 698 mmHg 94%
    08:00 +26°C° 0 mm 1 m/s 698 mmHg 83%
    09:00 +28°C° 0 mm 1 m/s 699 mmHg 72%
    10:00 +30°C° 0 mm 1 m/s 700 mmHg 61%
    11:00 +32°C° 0 mm 1 m/s 699 mmHg 55%
    12:00 +33°C° 0 mm 1 m/s 699 mmHg 49%
    13:00 +35°C° 0 mm 1 m/s 698 mmHg 42%
    14:00 +34°C° 0 mm 1 m/s 697 mmHg 46%
    15:00 +34°C° 0 mm 1 m/s 697 mmHg 49%
    16:00 +33°C° 0 mm 1 m/s 696 mmHg 52%
    17:00 +30°C° 0.5 mm 1 m/s 696 mmHg 64%
    18:00 +28°C° 0.5 mm 1 m/s 696 mmHg 75%
    19:00 +26°C° 0.5 mm 1 m/s 696 mmHg 87%
    20:00 +25°C° 0.1 mm 1 m/s 696 mmHg 90%
    21:00 +25°C° 0.1 mm 1 m/s 697 mmHg 94%
    22:00 +25°C° 0.1 mm 1 m/s 697 mmHg 97%
    23:00 +24°C° 1 mm 1 m/s 697 mmHg 97%

    7 Avril, Mardi

    Heure Température Précipitation Vent Pression Humidité
    00:00 +24°C° 1 mm 1 m/s 697 mmHg 97%
    01:00 +24°C° 1 mm 1 m/s 697 mmHg 97%
    02:00 +24°C° 0 mm 1 m/s 697 mmHg 97%
    03:00 +24°C° 0 mm 1 m/s 697 mmHg 98%
    04:00 +23°C° 0 mm 1 m/s 697 mmHg 98%
    05:00 +24°C° 0.6 mm 1 m/s 697 mmHg 98%
    06:00 +24°C° 0.6 mm 1 m/s 697 mmHg 97%
    07:00 +24°C° 0.6 mm 1 m/s 698 mmHg 97%
    08:00 +25°C° 0.2 mm 1 m/s 698 mmHg 90%
    09:00 +26°C° 0.2 mm 1 m/s 699 mmHg 83%
    10:00 +27°C° 0.2 mm 1 m/s 699 mmHg 76%
    11:00 +29°C° 0 mm 1 m/s 698 mmHg 66%
    12:00 +31°C° 0 mm 1 m/s 698 mmHg 57%
    13:00 +33°C° 0 mm 1 m/s 697 mmHg 47%
    14:00 +32°C° 0 mm 1 m/s 696 mmHg 51%
    15:00 +32°C° 0 mm 2 m/s 696 mmHg 55%
    16:00 +31°C° 0 mm 2 m/s 695 mmHg 59%
    17:00 +29°C° 0 mm 2 m/s 695 mmHg 68%
    18:00 +28°C° 0 mm 2 m/s 695 mmHg 78%
    19:00 +26°C° 0 mm 2 m/s 695 mmHg 87%
    20:00 +25°C° 0 mm 2 m/s 696 mmHg 89%
    21:00 +25°C° 0 mm 2 m/s 696 mmHg 91%
    22:00 +24°C° 0 mm 1 m/s 697 mmHg 93%
    23:00 +24°C° 0 mm 1 m/s 697 mmHg 94%

    8 Avril, Mercredi

    Heure Température Précipitation Vent Pression Humidité
    00:00 +23°C° 0 mm 1 m/s 696 mmHg 95%
    01:00 +23°C° 0 mm 1 m/s 696 mmHg 96%
    02:00 +23°C° 0 mm 1 m/s 696 mmHg 95%
    03:00 +23°C° 0 mm 1 m/s 696 mmHg 95%
    04:00 +23°C° 0 mm 1 m/s 696 mmHg 94%
    05:00 +23°C° 0 mm 1 m/s 696 mmHg 93%
    06:00 +21°C° 0 mm 0 m/s 696 mmHg 92%
    07:00 +21°C° 0 mm 0 m/s 697 mmHg 91%
    08:00 +25°C° 0 mm 1 m/s 697 mmHg 83%
    09:00 +27°C° 0 mm 1 m/s 698 mmHg 75%
    10:00 +29°C° 0 mm 1 m/s 699 mmHg 67%
    11:00 +30°C° 0.3 mm 1 m/s 698 mmHg 63%
    12:00 +32°C° 0.3 mm 1 m/s 697 mmHg 60%
    13:00 +34°C° 0.3 mm 2 m/s 696 mmHg 57%
    14:00 +31°C° 1.1 mm 2 m/s 696 mmHg 62%
    15:00 +30°C° 1.1 mm 2 m/s 695 mmHg 68%
    16:00 +29°C° 1.1 mm 2 m/s 694 mmHg 74%
    17:00 +27°C° 0.6 mm 2 m/s 694 mmHg 79%
    18:00 +26°C° 0.6 mm 2 m/s 694 mmHg 85%
    19:00 +24°C° 0.6 mm 2 m/s 695 mmHg 91%
    20:00 +24°C° 0.6 mm 2 m/s 695 mmHg 93%
    21:00 +24°C° 0.6 mm 2 m/s 696 mmHg 95%
    22:00 +23°C° 0.6 mm 1 m/s 696 mmHg 96%
    23:00 +23°C° 0 mm 1 m/s 696 mmHg 97%

    9 Avril, Jeudi

    Heure Température Précipitation Vent Pression Humidité
    00:00 +23°C° 0 mm 1 m/s 696 mmHg 98%
    01:00 +21°C° 0 mm 0 m/s 696 mmHg 98%
    02:00 +21°C° 0.5 mm 0 m/s 696 mmHg 98%
    03:00 +21°C° 0.5 mm 0 m/s 696 mmHg 99%
    04:00 +21°C° 0.5 mm 0 m/s 696 mmHg 99%
    05:00 +21°C° 0.4 mm 0 m/s 696 mmHg 98%
    06:00 +21°C° 0.4 mm 0 m/s 696 mmHg 98%
    07:00 +23°C° 0.4 mm 1 m/s 697 mmHg 97%
    08:00 +22°C° 0.1 mm 0 m/s 697 mmHg 93%
    09:00 +23°C° 0.1 mm 0 m/s 698 mmHg 89%
    10:00 +24°C° 0.1 mm 0 m/s 698 mmHg 84%
    11:00 +24°C° 0.9 mm 0 m/s 698 mmHg 86%
    12:00 +24°C° 0.9 mm 0 m/s 697 mmHg 87%
    13:00 +24°C° 0.9 mm 0 m/s 696 mmHg 89%
    14:00 +27°C° 1.1 mm 1 m/s 696 mmHg 88%
    15:00 +27°C° 1.1 mm 1 m/s 696 mmHg 88%
    16:00 +27°C° 1.1 mm 1 m/s 695 mmHg 87%
    17:00 +26°C° 0.9 mm 1 m/s 696 mmHg 90%
    18:00 +25°C° 0.9 mm 1 m/s 696 mmHg 92%
    19:00 +24°C° 0.9 mm 1 m/s 697 mmHg 95%
    20:00 +23°C° 0.6 mm 1 m/s 697 mmHg 95%
    21:00 +22°C° 0.6 mm 1 m/s 697 mmHg 96%
    22:00 +20°C° 0.6 mm 0 m/s 697 mmHg 96%
    23:00 +20°C° 0 mm 0 m/s 697 mmHg 96%
    Voir plus